Weather History for KAKO - January, 2013

Change the Weather History Date:

Thursday, January 17, 2013

  Actual Average Record
Temperature  
Mean Temperature 35 °F 29 °F  
Max Temperature 49 °F 40 °F 63 °F (1950)
Min Temperature 21 °F 17 °F -14 °F (1984)
Degree Days  
Heating Degree Days 30    
Month to date heating degree days 709  
Cooling Degree Days 0    
Month to date cooling degree days 0  
Moisture  
Dew Point 18 °F    
Average Humidity 54    
Maximum Humidity 77    
Minimum Humidity 31    
Precipitation  
Precipitation 0.00 in 0.01 in 0.22 in (1960)
Month to date precipitation T 0.14  
Year to date precipitation T 0.14  
Sea Level Pressure  
Sea Level Pressure 30.40 in    
Wind  
Wind Speed 12 mph (WSW)    
Max Wind Speed 21 mph    
Max Gust Speed 25 mph    
Visibility 10 miles    
Events      
T = Trace of Precipitation, MM = Missing Value Source: NWS Daily Summary

Daily Weather History Graph

Daily Weather History Graph

Search for Another Location

Airport or City:

Trip Planner

Search our weather history database for the weather conditions in past years. The results will help you decide how hot, cold, wet, or windy it might be!

Date:

Astronomy

Jan. 17, 2013 Rise Set
Actual Time 7:12 AM MST 4:54 PM MST
Civil Twilight 6:42 AM MST 5:23 PM MST
Nautical Twilight 6:09 AM MST 5:57 PM MST
Astronomical Twilight 5:36 AM MST 6:29 PM MST
Moon 10:19 AM MST (1/17) 11:48 PM MST (1/17)
Length of Visible Light 10h 41m
Length of Day
9h 41m
Waxing Crescent, 38% of the Moon is Illuminated
Jan 17
Waxing Crescent
Jan 18
First Quarter
Jan 26
Full
Feb 3
Last Quarter
Feb 10
New

Hourly Weather History & Observations

Time (MST) Temp. Windchill Dew Point Humidity Pressure Visibility Wind Dir Wind Speed Gust Speed Precip Events Conditions
12:53 AM 28.9 °F 19.2 °F 16.0 °F 58% 30.41 in 10.0 mi WNW 11.5 mph - N/A   Clear
1:53 AM 26.1 °F 16.8 °F 16.0 °F 66% 30.42 in 10.0 mi WNW 9.2 mph - N/A   Clear
2:53 AM 25.0 °F 14.2 °F 15.1 °F 66% 30.43 in 10.0 mi NW 11.5 mph - N/A   Clear
3:53 AM 28.0 °F 17.0 °F 16.0 °F 61% 30.44 in 10.0 mi WNW 13.8 mph - N/A   Clear
4:53 AM 21.9 °F 9.8 °F 15.1 °F 75% 30.48 in 10.0 mi West 12.7 mph - N/A   Clear
5:53 AM 21.9 °F 8.7 °F 15.1 °F 75% 30.50 in 10.0 mi WNW 15.0 mph - N/A   Clear
6:53 AM 21.9 °F 9.2 °F 15.1 °F 75% 30.51 in 10.0 mi West 13.8 mph - N/A   Clear
7:53 AM 23.0 °F 11.7 °F 16.0 °F 74% 30.54 in 10.0 mi WSW 11.5 mph - N/A   Clear
8:53 AM 28.0 °F 19.3 °F 18.0 °F 66% 30.56 in 10.0 mi West 9.2 mph - N/A   Clear
9:53 AM 34.0 °F 27.2 °F 19.0 °F 54% 30.54 in 10.0 mi West 8.1 mph - N/A   Clear
10:53 AM 39.0 °F 32.3 °F 21.0 °F 49% 30.48 in 10.0 mi SW 10.4 mph - N/A   Clear
11:53 AM 46.0 °F 39.3 °F 17.1 °F 31% 30.43 in 10.0 mi South 16.1 mph - N/A   Clear
12:53 PM 46.9 °F - 17.1 °F 30% 30.38 in 10.0 mi SSW 15.0 mph - N/A   Clear
1:53 PM 48.0 °F - 19.0 °F 32% 30.35 in 10.0 mi SW 16.1 mph - N/A   Clear
2:53 PM 48.0 °F - 21.0 °F 34% 30.35 in 10.0 mi SW 11.5 mph - N/A   Clear
3:53 PM 46.9 °F - 21.9 °F 37% 30.33 in 10.0 mi SSW 6.9 mph - N/A   Clear
4:53 PM 42.1 °F 37.7 °F 21.9 °F 45% 30.37 in 10.0 mi South 6.9 mph - N/A   Clear
5:53 PM 39.0 °F 32.3 °F 21.9 °F 50% 30.36 in 10.0 mi South 10.4 mph - N/A   Clear
6:53 PM 36.0 °F 28.0 °F 21.9 °F 57% 30.37 in 10.0 mi SSW 11.5 mph - N/A   Clear
7:53 PM 37.0 °F 28.5 °F 21.0 °F 52% 30.35 in 10.0 mi SSW 13.8 mph - N/A   Clear
8:53 PM 36.0 °F 26.7 °F 19.9 °F 52% 30.31 in 10.0 mi SSW 15.0 mph - N/A   Clear
9:53 PM 36.0 °F 26.3 °F 19.9 °F 52% 30.27 in 10.0 mi SW 16.1 mph - N/A   Clear
10:53 PM 36.0 °F 26.3 °F 19.0 °F 50% 30.23 in 10.0 mi SW 16.1 mph - N/A   Clear
11:53 PM 32.0 °F 20.1 °F 19.0 °F 59% 30.20 in 10.0 mi WSW 19.6 mph - N/A   Clear